Location: Schommer Observatory
(40.5200°N, 74.4500°W)
Time: 18:57:50
(UTC-05:00)

OTV 5 (USA 277) - Pass Details

Date: 18 November 2017
Orbit: 404 x 417 km, 43.0° (Epoch: 07 September)

Event Time Altitude Azimuth Distance (km) Brightness Sun altitude
Exits shadow 05:04:30 85° 330° (NNW) 408 ? -19.6°
Maximum altitude 05:04:33 86° 12° (NNE) 408 ? -19.6°
Drops below altitude 10° 05:07:50 10° 106° (ESE) 1,452 ? -18.9°
Sets 05:09:55 0° 107° (ESE) 2,310 ? -18.6°
